[[{"header":{"parameterUnit":"m.s-1","parameterCategory":1,"la1":30.2991,"la2":30.254,"lo1":-89.0895,"lo2":-89.0444,"dy":0.0017,"dx":0.0017,"nx":28,"ny":28,"refTime":"2025-05-19T21:00:00:Z","depth":0,"parameterNumber":2,"parameterNumberName":"U-component_of_WINDS"},"data":[0,0,0,0,0,0,0,0,0,0,0,0,0,0,0,0,0,0,0,0,0,0,0,0,0,0,0,0,0,0,0,0,0,0,0,0,0,0,0,0,0,0,0,0,0,0,0,0,0,0,0,0,0,0,0,0,0,0,4.0521,4.0523,0,4.0677,4.0679,4.068,4.066,4.0657,4.0655,4.0652,4.0816,4.0822,4.0829,0,0,0,0,0,0,0,0,0,0,0,0,0,4.0207,4.0213,4.0521,4.0523,4.0525,4.0677,4.0679,4.0681,4.066,4.0657,4.0654,4.0651,4.0814,4.0822,4.083,0,0,0,0,0,0,0,0,0,0,0,0,0,4.0351,4.0215,4.052,4.0533,4.0535,4.0676,4.0679,4.0682,4.0661,4.0657,4.0653,4.065,4.0811,4.0821,4.0831,4.0971,0,0,4.0862,4.0866,0,0,0,0,0,0,0,0,4.0343,4.0363,4.0529,4.0532,4.0535,4.0645,4.0628,4.0779,4.0662,4.0613,4.0652,4.0648,4.0762,4.0776,4.0814,4.0978,4.0985,4.0863,4.0869,4.0873,4.0876,0,0,0,0,0,0,0,4.0333,4.0356,4.0583,4.0531,4.0535,4.0531,4.0547,4.0657,4.0708,4.0617,4.0616,4.0635,4.0763,4.0804,4.0818,4.0988,4.0862,4.0871,4.0878,4.0882,4.1274,4.1278,0,0,0,0,0,0,4.032,4.0348,4.0578,4.0587,4.0428,4.054,4.0558,4.0614,4.0706,4.0717,4.0638,4.0633,4.0789,4.0806,4.0823,4.0992,4.0873,4.0883,4.0888,4.1269,4.1275,4.1279,0,0,0,0,0,0,4.0313,4.034,4.0571,4.0467,4.0496,4.0549,4.0612,4.0619,4.066,4.0722,4.0731,4.067,4.0787,4.0809,4.0934,4.0998,4.0887,4.0896,4.1264,4.1271,4.1277,4.1332,0,0,0,0,0,0,4.0304,4.0338,4.0391,4.0469,4.0502,4.0678,4.0616,4.0625,4.0677,4.0672,4.0755,4.0765,4.0785,4.0919,4.0944,4.101,4.0904,4.1259,4.1267,4.1275,4.1325,4.1339,4.1352,0,0,0,0,0,4.0293,4.0402,4.0394,4.0422,4.0569,4.0682,4.0701,4.0722,4.0682,4.0736,4.0776,4.0762,4.0987,4.0932,4.096,4.103,4.1255,4.1265,4.1274,4.1318,4.1337,4.1352,0,0,0,0,0,0,4.0332,4.0412,4.0405,4.0541,4.0605,4.0678,4.0747,4.074,4.0817,4.081,4.0833,4.0852,4.0978,4.1016,4.0953,4.117,4.1116,4.1131,4.1139,4.1157,4.1171,4.1159,4.0913,0,0,0,0,0,4.0356,4.044,4.0506,4.062,4.0652,4.0694,4.0744,4.0754,4.0821,4.0849,4.0898,4.0964,4.105,4.1106,4.1188,4.133,4.1348,4.1392,4.1406,4.1417,4.143,4.1508,4.1528,4.1311,4.1311,4.1311,0,0,4.0407,4.0461,4.0513,4.0629,4.0679,4.0766,4.0717,4.0811,4.0876,4.0863,4.0983,4.1022,4.1098,4.1231,4.1293,4.1267,4.1494,4.143,4.1438,4.1445,4.152,4.154,4.1558,4.1318,4.1317,4.1316,0,0,4.0544,4.0594,4.0694,4.0745,4.0822,4.0849,4.0873,4.0948,4.0972,4.1093,4.1084,4.1163,4.131,4.1364,4.1411,4.1568,4.1558,4.1594,4.1666,4.1741,4.1758,4.1773,4.1829,4.1848,4.1607,4.1608,4.1608,0,4.0599,4.0728,4.0747,4.0842,4.0893,4.0884,4.0985,4.1034,4.1135,4.117,4.114,4.1324,4.1375,4.152,4.1558,4.1597,4.1625,4.1585,4.1754,4.177,4.1784,4.1837,4.1858,4.1611,4.1611,4.1611,4.161,0,4.0791,4.0881,4.0952,4.1047,4.1107,4.1205,4.1238,4.1297,4.1301,4.1332,4.1455,4.1515,4.1609,4.1644,4.1651,4.1791,4.1773,4.1749,4.1695,4.1808,4.1858,4.1879,4.1617,4.1616,4.1614,4.1613,0,0,4.0957,4.106,4.1086,4.1128,4.1212,4.1282,4.138,4.147,4.1519,4.1589,4.1671,4.1795,4.1773,4.1826,4.1838,4.1904,4.2024,4.1872,4.1874,4.1897,4.2181,4.2198,4.2221,4.2018,4.2022,4.2025,4.2174,0,4.1101,4.1272,4.1291,4.1444,4.1527,4.152,4.1605,4.1665,4.1697,4.1772,4.1807,4.1894,4.1859,4.189,4.1955,4.1995,4.2081,4.1985,4.2095,4.2098,4.2075,4.2248,4.2266,4.2404,4.2194,4.2198,4.22,0,4.1293,4.1366,4.1526,4.1597,4.1633,4.1709,4.1792,4.1865,4.1934,4.1952,4.2011,4.2015,4.2116,4.2058,4.2198,4.2132,4.2178,4.2205,4.2211,4.2221,4.2155,4.2262,4.2449,4.2469,4.2231,4.2229,4.2226,0,4.1396,4.1535,4.1649,4.1686,4.1772,4.1825,4.1863,4.1928,4.1981,4.2055,4.2089,4.2175,4.2221,4.2288,4.2315,4.227,4.2453,4.2398,4.2471,4.247,4.2509,4.2506,4.2705,4.254,4.254,4.254,4.2539,0,4.1555,4.1654,4.1696,4.1766,4.1876,4.1897,4.2006,4.2042,4.21,4.2177,4.2177,4.2249,4.2281,4.2359,4.2381,4.2493,4.2514,4.2532,4.2536,4.2531,4.2529,4.2561,4.2552,4.2545,4.2544,4.2543,4.2542,0,4.169,4.1722,4.1845,4.1916,4.1936,4.2014,4.2075,4.2142,4.2172,4.227,4.2294,4.2342,4.2433,4.2467,4.2579,4.2593,4.2723,4.272,4.2699,4.27,4.277,4.2763,4.2996,4.3028,4.2843,4.2845,4.2847,0,4.1788,4.1863,4.1942,4.1993,4.2032,4.2115,4.2168,4.2193,4.2248,4.2332,4.239,4.248,4.2554,4.27,4.2746,4.2831,4.283,4.2906,4.2843,4.2835,4.283,4.2824,4.2831,4.2917,4.2919,4.2921,4.2922,0,4.196,4.1972,4.2048,4.213,4.2193,4.2259,4.2324,4.2366,4.24,4.2462,4.2555,4.2612,4.2725,4.2815,4.2903,4.2943,4.2939,4.2941,4.2963,4.2958,4.2942,4.295,4.273,4.2936,4.2934,4.2933,4.2933,4.2932,4.2079,4.2144,4.2209,4.2294,4.2345,4.2404,4.2471,4.2509,4.2586,4.2679,4.2689,4.2788,4.2855,4.2972,4.3016,4.3095,4.3074,4.3105,4.3113,4.312,4.3124,4.293,4.3111,4.3111,4.3111,4.311,4.311,0,4.2249,4.229,4.2368,4.2456,4.2523,4.2512,4.2582,4.2639,4.2726,4.2788,4.286,4.2966,4.3053,4.3105,4.3192,4.3245,4.3245,4.3267,4.3263,4.3272,4.3139,4.3111,4.3266,4.3266,4.3266,4.3265,4.3265,4.3265,4.2345,4.2456,4.2475,4.2611,4.2652,4.2748,4.2789,4.2844,4.2893,4.3011,4.3083,4.3115,4.3173,4.3265,4.3344,4.3357,4.3389,4.3413,4.3424,4.3298,4.3282,4.3266,4.324,4.342,4.342,4.3551,4.3552,4.3553]},{"header":{"parameterUnit":"m.s-1","parameterCategory":1,"la1":30.2991,"la2":30.254,"lo1":-89.0895,"lo2":-89.0444,"dy":0.0017,"dx":0.0017,"nx":28,"ny":28,"refTime":"2025-05-19T21:00:00:Z","depth":0,"parameterNumber":3,"parameterNumberName":"V-component_of_WINDS"},"data":[0,0,0,0,0,0,0,0,0,0,0,0,0,0,0,0,0,0,0,0,0,0,0,0,0,0,0,0,0,0,0,0,0,0,0,0,0,0,0,0,0,0,0,0,0,0,0,0,0,0,0,0,0,0,0,0,0,0,2.49,2.4901,0,2.499,2.4991,2.4992,2.4975,2.4973,2.4971,2.497,2.506,2.5064,2.5068,0,0,0,0,0,0,0,0,0,0,0,0,0,2.471,2.4714,2.49,2.4901,2.4902,2.499,2.4991,2.4993,2.4975,2.4973,2.4971,2.4969,2.5059,2.5063,2.5068,0,0,0,0,0,0,0,0,0,0,0,0,0,2.4796,2.4715,2.49,2.4904,2.4906,2.499,2.4991,2.4993,2.4975,2.4973,2.4971,2.4968,2.5057,2.5063,2.5069,2.5154,0,0,2.5087,2.5089,0,0,0,0,0,0,0,0,2.4791,2.4803,2.4902,2.4904,2.4906,2.4969,2.4957,2.5047,2.4976,2.4949,2.497,2.4967,2.5031,2.5039,2.5061,2.5158,2.5162,2.5087,2.5091,2.5093,2.5095,0,0,0,0,0,0,0,2.4785,2.4799,2.4936,2.4904,2.4906,2.4901,2.491,2.4974,2.5003,2.4951,2.495,2.4961,2.5032,2.5056,2.5063,2.5163,2.5087,2.5092,2.5096,2.5098,2.5333,2.5336,0,0,0,0,0,0,2.4778,2.4794,2.4933,2.4938,2.4841,2.4906,2.4917,2.4951,2.5002,2.5007,2.4963,2.496,2.5047,2.5057,2.5067,2.517,2.5093,2.5099,2.5102,2.5331,2.5334,2.5337,0,0,0,0,0,0,2.4774,2.4791,2.4929,2.4866,2.4883,2.4912,2.4951,2.4954,2.4978,2.5011,2.5016,2.4982,2.5046,2.5058,2.5132,2.5172,2.5101,2.5107,2.5327,2.5332,2.5335,2.5376,0,0,0,0,0,0,2.4769,2.4789,2.4823,2.4867,2.4887,2.4994,2.4953,2.4958,2.4988,2.4985,2.5031,2.5036,2.5045,2.5124,2.5138,2.5179,2.5111,2.5324,2.5329,2.5334,2.5372,2.5381,2.539,0,0,0,0,0,2.4762,2.483,2.4824,2.4841,2.4929,2.4997,2.5008,2.5017,2.4992,2.5025,2.5046,2.5034,2.5165,2.5131,2.5147,2.5191,2.5321,2.5328,2.5334,2.5367,2.5379,2.5389,0,0,0,0,0,0,2.4789,2.4836,2.483,2.4915,2.4952,2.4994,2.5036,2.503,2.5074,2.5069,2.5078,2.5089,2.5164,2.5185,2.5146,2.5276,2.524,2.5249,2.526,2.5271,2.528,2.5274,2.5116,0,0,0,0,0,2.4805,2.4857,2.4895,2.4966,2.4985,2.5007,2.5037,2.5041,2.508,2.5095,2.5121,2.5159,2.5208,2.5241,2.5288,2.5374,2.5383,2.5412,2.5421,2.5428,2.5437,2.5483,2.5496,2.5357,2.5357,2.5357,0,0,2.4838,2.487,2.4902,2.4972,2.5001,2.5054,2.5021,2.5078,2.5117,2.5103,2.5175,2.5196,2.5238,2.5318,2.5355,2.5338,2.5477,2.5436,2.5441,2.5446,2.5491,2.5504,2.5516,2.5361,2.536,2.536,0,0,2.4926,2.4956,2.5018,2.5048,2.5093,2.5108,2.5123,2.5165,2.5179,2.5251,2.5242,2.5288,2.5373,2.5404,2.543,2.5529,2.552,2.5544,2.5592,2.5637,2.5648,2.5658,2.5693,2.5706,2.5552,2.5552,2.5552,0,2.4962,2.5042,2.5051,2.5109,2.514,2.5131,2.5194,2.5222,2.528,2.5301,2.5281,2.5388,2.5415,2.5502,2.5526,2.5548,2.5565,2.5539,2.5646,2.5656,2.5665,2.5699,2.5712,2.5555,2.5554,2.5554,2.5554,0,2.5084,2.5139,2.5184,2.5241,2.5277,2.5337,2.5354,2.5389,2.5389,2.5406,2.5479,2.5512,2.5566,2.5586,2.5587,2.5674,2.5662,2.5644,2.5608,2.5681,2.5713,2.5726,2.5559,2.5558,2.5557,2.5556,0,0,2.5192,2.5253,2.527,2.5295,2.5344,2.5387,2.5446,2.5499,2.5529,2.5568,2.5619,2.5691,2.5674,2.5704,2.5708,2.5748,2.5825,2.5725,2.5726,2.5743,2.5922,2.5936,2.5951,2.5818,2.5821,2.5823,2.5919,0,2.5285,2.5391,2.5401,2.5496,2.5547,2.5538,2.559,2.5625,2.5641,2.5686,2.5704,2.5755,2.573,2.5748,2.5787,2.5807,2.5861,2.58,2.5865,2.5867,2.5855,2.5968,2.5983,2.6072,2.5931,2.5933,2.5935,0,2.5408,2.5452,2.5553,2.5594,2.5616,2.5662,2.5712,2.5755,2.5794,2.5803,2.5837,2.5835,2.5896,2.5857,2.594,2.5898,2.5925,2.5939,2.5942,2.595,2.5906,2.5978,2.61,2.6114,2.5955,2.5953,2.5952,0,2.5478,2.5562,2.5633,2.5656,2.5705,2.5738,2.576,2.5797,2.5828,2.5871,2.5891,2.594,2.5967,2.6005,2.6016,2.5987,2.6099,2.6061,2.6108,2.6108,2.6133,2.6131,2.6262,2.6149,2.6148,2.6148,2.6148,0,2.5581,2.5643,2.5666,2.5709,2.5778,2.5788,2.5855,2.5875,2.5908,2.5955,2.5949,2.5993,2.6005,2.6051,2.606,2.6128,2.614,2.6148,2.615,2.615,2.6149,2.6168,2.6162,2.6152,2.6151,2.615,2.615,0,2.5671,2.5689,2.5766,2.5807,2.5818,2.5867,2.5902,2.5943,2.5959,2.6018,2.6033,2.6056,2.611,2.6125,2.6189,2.6195,2.6275,2.627,2.6262,2.6262,2.6309,2.6304,2.6457,2.6477,2.635,2.6351,2.6352,0,2.5736,2.5784,2.583,2.5862,2.5885,2.5936,2.5968,2.5979,2.6012,2.606,2.6096,2.6149,2.6192,2.6278,2.6301,2.635,2.6347,2.6397,2.6354,2.6352,2.6348,2.6346,2.6351,2.6405,2.6407,2.6408,2.6409,0,2.585,2.5857,2.5904,2.5954,2.5993,2.6033,2.6071,2.6097,2.6112,2.615,2.6206,2.6239,2.6305,2.6358,2.6407,2.6428,2.6422,2.6422,2.6435,2.6436,2.6429,2.6434,2.6285,2.6418,2.6417,2.6417,2.6416,2.6416,2.5931,2.5972,2.6012,2.6064,2.6094,2.613,2.6171,2.6192,2.6238,2.6293,2.6296,2.6356,2.6393,2.6459,2.6483,2.653,2.6515,2.6534,2.654,2.6545,2.6549,2.6421,2.6539,2.6538,2.6538,2.6538,2.6538,0,2.6045,2.6069,2.6118,2.6172,2.6213,2.6203,2.6244,2.6279,2.6332,2.6368,2.6411,2.6474,2.6525,2.6551,2.6602,2.6634,2.6632,2.6647,2.6645,2.665,2.6559,2.6543,2.6648,2.6648,2.6648,2.6648,2.6648,2.6648,2.6109,2.618,2.6191,2.6276,2.6299,2.6359,2.6384,2.6416,2.6445,2.6516,2.6559,2.6576,2.6608,2.666,2.6706,2.6713,2.6732,2.6749,2.6753,2.6668,2.6657,2.6646,2.6631,2.6753,2.6753,2.6841,2.6842,2.6842]}]]